NEODyS-2

Near Earth Objects - Dynamic Site
NEODyS ∴ Observatories ∴ Site 691 ∴ Obs & residuals
Contact »
691  ▹ 
OBSERVATIONS AND RESIDUALS

691-Steward Observatory, Kitt Peak-Spacewatch

Detections | Residuals | Detections & Residuals

[1-200] [201-400] [401-600] [601-800] [801-1000] [1001-1200] [1201-1400] [1401-1600] [1601-1800] [1801-2000] [2001-2200] [2201-2400] [2401-2600] [2601-2800] [2801-3000] [3001-3200] [3201-3400] [3401-3600] [3601-3800] [3801-4000] [4001-4200] [4201-4400] [4401-4600] [4601-4800] [4801-5000] [5001-5200] [5201-5400] [5401-5600] [5601-5800] [5801-6000] [6001-6200] [6201-6400] [6401-6600] [6601-6800] [6801-7000] [7001-7200] [7201-7400] [7401-7600] [7601-7800] [7801-8000] [8001-8200] [8201-8400] [8401-8600] [8601-8800] [8801-9000] [9001-9200] [9201-9400] [9401-9600] [9601-9800] [9801-10000] [10001-10200] [10201-10400] [10401-10600] [10601-10800] [10801-11000] [11001-11200] [11201-11400] [11401-11600] [11601-11800] [11801-12000] [12001-12200] [12201-12400] [12401-12600] [12601-12800] [12801-13000] [13001-13200] [13201-13400] [13401-13600] [13601-13800] [13801-14000] [14001-14200] [14201-14400] [14401-14600] [14601-14800] [14801-15000] [15001-15200] [15201-15400] [15401-15600] [15601-15800] [15801-16000] [16001-16200] [16201-16400] [16401-16600] [16601-16800] [16801-17000] [17001-17200] [17201-17400] [17401-17600] [17601-17800] [17801-18000] [18001-18200] [18201-18400] [18401-18600] [18601-18800] [18801-19000] [19001-19200] [19201-19400] [19401-19600] [19601-19800] [19801-20000] [20001-20200] [20201-20400] [20401-20600] [20601-20800] [20801-21000] [21001-21200] [21201-21400] [21401-21600] [21601-21800] [21801-22000] [22001-22200] [22201-22400] [22401-22600] [22601-22800] [22801-23000] [23001-23200] [23201-23400] [23401-23600] [23601-23800] [23801-24000] [24001-24200] [24201-24400] [24401-24600] [24601-24800] [24801-25000] [25001-25200] [25201-25400] [25401-25600] [25601-25800] [25801-26000] [26001-26200] [26201-26400] [26401-26600] [26601-26800] [26801-27000] [27001-27200] [27201-27400] [27401-27600] [27601-27800] [27801-28000] [28001-28200] [28201-28400] [28401-28600] [28601-28800] [28801-29000] [29001-29200] [29201-29400] [29401-29600] [29601-29800] [29801-30000] [30001-30200] [30201-30400] [30401-30600] [30601-30800] [30801-31000] [31001-31200] [31201-31400] [31401-31600] [31601-31800] [31801-32000] [32001-32200] [32201-32400] [32401-32600] [32601-32800] [32801-33000] [33001-33200] [33201-33400] [33401-33600] [33601-33800] [33801-34000] [34001-34200] [34201-34400] [34401-34600] [34601-34800] [34801-35000] [35001-35200] [35201-35400] [35401-35600] [35601-35800] [35801-36000] [36001-36200] [36201-36400] [36401-36600] [36601-36800] [36801-37000] [37001-37200] [37201-37400] [37401-37600] [37601-37800] [37801-38000] [38001-38200] [38201-38400] [38401-38600] [38601-38800] [38801-39000] [39001-39200] [39201-39400] [39401-39600] [39601-39800] [39801-40000] [40001-40200] [40201-40400] [40401-40600] [40601-40800] [40801-41000] [41001-41200] [41201-41400] [41401-41600] [41601-41800] [41801-42000] [42001-42200] [42201-42400] [42401-42600] [42601-42800] [42801-43000] [43001-43200] [43201-43400] [43401-43600] [43601-43800] [43801-44000] [44001-44200] [44201-44400] [44401-44600] [44601-44800] [44801-45000] [45001-45200] [45201-45400] [45401-45600] [45601-45800] [45801-46000] [46001-46200] [46201-46400] [46401-46600] [46601-46800] [46801-47000] [47001-47200] [47201-47400] [47401-47600] [47601-47800] [47801-48000] [48001-48200] [48201-48400] [48401-48600] [48601-48800] [48801-49000] [49001-49200] [49201-49400] [49401-49600] [49601-49800] [49801-50000] [50001-50200] [50201-50388]

Designation T Tech N Date Right Ascension Declination Apparent Magnitude Star Catalog Site code χ Used A Used M
yr-mo-day precision hr:min:sec precision rms F bias residual deg min sec precision rms F bias residual mag/col rms residual
2004BG121 O C H 2004-02-12.29223 1.000E-05 08:47:38.680 1.500E-01 0.750 F 0.279 0.521 +22° 11' 22.80" 1.000E-01 0.750 F 0.295 -0.598 c 691 1.06 Yes No
2004BG121 O C H 2004-02-12.29488 1.000E-05 08:47:38.440 1.500E-01 0.750 F 0.279 0.446 +22° 11' 25.30" 1.000E-01 0.750 F 0.295 -0.444 c 691 0.84 Yes No
2004BG121 O C H 2004-02-12.29821 1.000E-05 08:47:38.110 1.500E-01 0.750 F 0.279 -0.044 +22° 11' 28.20" 1.000E-01 0.750 F 0.295 -0.490 c 691 0.66 Yes No
2004BG121 O C H 2004-02-12.30080 1.000E-05 08:47:37.930 1.500E-01 0.750 F 0.279 0.640 +22° 11' 30.10" 1.000E-01 0.750 F 0.295 -0.881 c 691 1.45 Yes No
2004BG121 O C H 2004-02-12.30330 1.000E-05 08:47:37.690 1.500E-01 0.750 F 0.279 0.379 +22° 11' 32.30" 1.000E-01 0.750 F 0.295 -0.892 c 691 1.29 Yes No
2004BG121 O C H 2004-02-12.30595 1.000E-05 08:47:37.430 1.500E-01 0.750 F 0.279 0.025 +22° 11' 34.90" 1.000E-01 0.750 F 0.295 -0.634 c 691 0.85 Yes No
2004BG121 O C H 2004-02-12.30862 1.000E-05 08:47:37.240 1.500E-01 0.750 F 0.279 0.666 +22° 11' 37.50" 1.000E-01 0.750 F 0.295 -0.393 c 691 1.03 Yes No
2004BG121 O C H 2004-02-12.31136 1.000E-05 08:47:36.980 1.500E-01 0.750 F 0.279 0.422 +22° 11' 39.70" 1.000E-01 0.750 F 0.295 -0.613 c 691 0.99 Yes No
1998EC3 O C 2004-02-13.10614 1.000E-05 07:52:18.190 1.500E-01 0.500 F 0.228 -0.379 +20° 44' 15.20" 1.000E-01 0.500 F 0.409 -0.104 22.0 V 0.70 1.94 c 691 0.79 Yes Yes
1998EC3 O C 2004-02-13.14165 1.000E-05 07:52:15.470 1.500E-01 0.500 F 0.228 0.120 +20° 44' 29.40" 1.000E-01 0.500 F 0.409 -0.643 21.9 V 0.70 1.83 c 691 1.31 Yes Yes
1998EC3 O C 2004-02-13.16922 1.000E-05 07:52:13.290 1.500E-01 0.500 F 0.228 -0.354 +20° 44' 41.10" 1.000E-01 0.500 F 0.409 -0.329 21.5 V 0.70 1.43 c 691 0.97 Yes Yes
2004BG121 O C H 2004-02-13.37689 1.000E-05 08:46:06.410 1.500E-01 0.612 F 0.279 0.612 +22° 27' 13.50" 1.000E-01 0.612 F 0.295 -0.607 c 691 1.41 Yes No
2004BG121 O C H 2004-02-13.37948 1.000E-05 08:46:06.180 1.500E-01 0.612 F 0.279 0.532 +22° 27' 14.90" 1.000E-01 0.612 F 0.295 -1.430 c 691 2.49 Yes No
2004BG121 O C H 2004-02-13.38485 1.000E-05 08:46:05.750 1.500E-01 0.612 F 0.279 1.012 +22° 27' 19.60" 1.000E-01 0.612 F 0.295 -1.337 c 691 2.74 Yes No
2004BG121 O C H 2004-02-13.38743 1.000E-05 08:46:05.480 1.500E-01 0.612 F 0.279 0.361 +22° 27' 22.10" 1.000E-01 0.612 F 0.295 -1.049 c 691 1.81 Yes No
2004BG121 O C H 2004-02-13.39259 1.000E-05 08:46:05.020 1.500E-01 0.612 F 0.279 0.166 +22° 27' 26.50" 1.000E-01 0.612 F 0.295 -1.071 c 691 1.77 Yes No
2004BG121 O C H 2004-02-13.39544 1.000E-05 08:46:04.840 1.500E-01 0.612 F 0.279 1.083 +22° 27' 29.10" 1.000E-01 0.612 F 0.295 -0.913 c 691 2.32 Yes No
Golombek O C 2004-02-14.13105 1.000E-05 08:33:43.560 1.500E-01 0.500 F 0.280 -0.204 +19° 10' 03.70" 1.000E-01 0.500 F 0.443 -0.128 20.9 V 0.70 0.44 c 691 0.48 Yes Yes
Golombek O C 2004-02-14.15815 1.000E-05 08:33:41.810 1.500E-01 0.500 F 0.280 -0.191 +19° 10' 06.90" 1.000E-01 0.500 F 0.443 -0.207 20.7 V 0.70 0.24 c 691 0.56 Yes Yes
Golombek O C 2004-02-14.18508 1.000E-05 08:33:40.060 1.500E-01 0.500 F 0.280 -0.278 +19° 10' 10.40" 1.000E-01 0.500 F 0.443 0.063 20.8 V 0.70 0.34 c 691 0.57 Yes Yes
2004BG121 O C H 2004-02-14.21349 1.000E-05 08:44:56.940 1.500E-01 0.500 F 0.243 0.588 +22° 39' 12.90" 1.000E-01 0.500 F 0.293 -1.009 c 691 2.34 Yes No
2004BG121 O C H 2004-02-14.24146 1.000E-05 08:44:54.490 1.500E-01 0.500 F 0.243 -0.100 +22° 39' 37.40" 1.000E-01 0.500 F 0.293 -0.482 c 691 0.98 Yes No
Zephyr O C 2004-02-14.46498 1.000E-05 10:32:03.120 1.500E-01 0.500 F 0.429 -0.271 +06° 52' 50.00" 1.000E-01 0.500 F 0.213 -0.099 20.2 V 0.70 0.53 c 691 0.58 Yes Yes
Zephyr O C 2004-02-14.49200 1.000E-05 10:32:01.350 1.500E-01 0.500 F 0.429 -0.082 +06° 53' 01.80" 1.000E-01 0.500 F 0.213 -0.276 20.0 V 0.70 0.33 c 691 0.58 Yes Yes
Zephyr O C 2004-02-14.52018 1.000E-05 10:31:59.480 1.500E-01 0.500 F 0.429 -0.332 +06° 53' 14.50" 1.000E-01 0.500 F 0.213 -0.062 20.0 V 0.70 0.33 c 691 0.68 Yes Yes
2004PJ2 O C H 2004-02-16.10500 1.000E-05 07:39:01.350 1.500E-01 0.500 F 0.053 -0.561 +21° 32' 18.40" 1.000E-01 0.500 F 0.358 -0.198 c 691 1.23 Yes No
2004PJ2 O C H 2004-02-16.13198 1.000E-05 07:38:57.560 1.500E-01 0.500 F 0.053 -0.286 +21° 32' 18.40" 1.000E-01 0.500 F 0.358 -0.491 c 691 1.14 Yes No
2004PJ2 O C H 2004-02-16.15956 1.000E-05 07:38:53.700 1.500E-01 0.500 F 0.053 0.467 +21° 32' 18.40" 1.000E-01 0.500 F 0.358 -0.609 c 691 1.58 Yes No
1999MM O C 2004-02-16.37037 1.000E-05 10:32:34.960 1.500E-01 0.500 F 0.362 -0.332 +16° 52' 37.10" 1.000E-01 0.500 F 0.370 0.067 20.9 V 0.70 0.80 c 691 0.68 Yes Yes
1999MM O C 2004-02-16.39746 1.000E-05 10:32:31.010 1.500E-01 0.500 F 0.362 -0.112 +16° 53' 01.30" 1.000E-01 0.500 F 0.370 -0.100 20.4 V 0.70 0.30 c 691 0.30 Yes Yes
1999MM O C 2004-02-16.42816 1.000E-05 10:32:26.540 1.500E-01 0.500 F 0.362 0.084 +16° 53' 28.70" 1.000E-01 0.500 F 0.370 -0.185 20.3 V 0.70 0.20 c 691 0.41 Yes Yes
2003VG1 O C 2004-02-16.44476 1.000E-05 10:51:30.080 1.500E-01 0.500 F 0.447 -0.191 +08° 31' 57.10" 1.000E-01 0.500 F 0.482 -0.237 17.9 V 0.70 0.63 c 691 0.62 Yes Yes
2004CP49 O C 2004-02-16.45016 1.000E-05 10:53:55.570 1.500E-01 0.500 F 0.556 0.253 +06° 45' 12.80" 1.000E-01 0.500 F 0.356 -0.183 19.8 V 0.70 0.84 c 691 0.63 Yes Yes
2003VG1 O C 2004-02-16.50377 1.000E-05 10:51:26.190 1.500E-01 0.500 F 0.447 -0.223 +08° 30' 07.90" 1.000E-01 0.500 F 0.482 -0.103 17.5 V 0.70 0.23 c 691 0.50 Yes Yes
2004CP49 O C 2004-02-16.50936 1.000E-05 10:53:56.960 1.500E-01 0.500 F 0.556 0.005 +06° 48' 04.00" 1.000E-01 0.500 F 0.356 0.044 19.0 V 0.70 0.04 c 691 0.09 Yes Yes
2003VG1 O C 2004-02-16.53145 1.000E-05 10:51:24.430 1.500E-01 0.500 F 0.447 -0.201 +08° 29' 16.60" 1.000E-01 0.500 F 0.482 -0.071 17.5 V 0.70 0.23 c 691 0.43 Yes Yes
2004CP49 O C 2004-02-16.53665 1.000E-05 10:53:57.640 1.500E-01 0.500 F 0.556 -0.109 +06° 49' 22.90" 1.000E-01 0.500 F 0.356 0.052 19.1 V 0.70 0.15 c 691 0.24 Yes Yes
1996DH O C 2004-02-17.31477 1.000E-05 09:23:53.110 1.500E-01 0.500 F 0.679 -0.130 +05° 18' 09.70" 1.000E-01 0.500 F 0.288 -0.016 18.9 V 0.70 0.44 c 691 0.26 Yes Yes
2008SQ1 O C 2004-02-17.32330 1.000E-05 09:29:09.060 1.500E-01 0.500 F 0.369 -0.404 +03° 30' 14.70" 1.000E-01 0.500 F 0.397 0.115 20.6 V 0.70 0.36 c 691 0.85 Yes Yes
1996DH O C 2004-02-17.37490 1.000E-05 09:23:46.290 1.500E-01 0.500 F 0.679 -0.166 +05° 18' 02.80" 1.000E-01 0.500 F 0.288 0.174 18.7 V 0.70 0.24 c 691 0.48 Yes Yes
2008SQ1 O C 2004-02-17.38314 1.000E-05 09:29:05.180 1.500E-01 0.500 F 0.369 -0.432 +03° 30' 32.60" 1.000E-01 0.500 F 0.397 0.042 20.5 V 0.70 0.26 c 691 0.88 Yes Yes
1996DH O C 2004-02-17.40397 1.000E-05 09:23:43.010 1.500E-01 0.500 F 0.679 -0.104 +05° 17' 59.20" 1.000E-01 0.500 F 0.288 0.027 18.8 V 0.70 0.34 c 691 0.22 Yes Yes
2008SQ1 O C 2004-02-17.41174 1.000E-05 09:29:03.330 1.500E-01 0.500 F 0.369 -0.585 +03° 30' 40.90" 1.000E-01 0.500 F 0.397 -0.232 20.7 V 0.70 0.46 c 691 1.27 Yes Yes
2004DD O C 2004-02-17.42279 1.000E-05 10:54:48.240 1.500E-01 0.500 F 0.379 -1.256 +20° 16' 03.80" 1.000E-01 0.500 F 0.203 -0.063 22.0 V 0.70 1.14 c 691 2.54 Yes Yes
2004DD O C 2004-02-17.45082 1.000E-05 10:54:44.890 1.500E-01 0.500 F 0.379 -0.171 +20° 16' 12.30" 1.000E-01 0.500 F 0.203 0.033 21.6 V 0.70 0.74 c 691 0.35 Yes Yes
2004DD O C 2004-02-17.47781 1.000E-05 10:54:41.600 1.500E-01 0.500 F 0.379 -0.152 +20° 16' 20.00" 1.000E-01 0.500 F 0.203 -0.283 21.7 V 0.70 0.84 c 691 0.65 Yes Yes
2004CA2 O C 2004-02-18.25984 1.000E-05 09:42:08.250 1.500E-01 0.500 F 0.174 -0.119 +02° 07' 38.70" 1.000E-01 0.500 F 0.553 0.017 20.3 V 0.70 0.08 c 691 0.27 Yes Yes
2004CA2 O C 2004-02-18.29221 1.000E-05 09:42:09.190 1.500E-01 0.500 F 0.174 0.019 +02° 07' 58.70" 1.000E-01 0.500 F 0.553 -0.136 20.4 V 0.70 0.17 c 691 0.31 Yes Yes
2004CA2 O C 2004-02-18.31903 1.000E-05 09:42:09.950 1.500E-01 0.500 F 0.174 0.035 +02° 08' 15.50" 1.000E-01 0.500 F 0.553 0.070 20.2 V 0.70 -0.03 c 691 0.17 Yes Yes
2004DL1 O C 2004-02-18.33917 1.000E-05 09:53:57.800 1.500E-01 0.500 F 0.460 -0.317 +01° 54' 26.50" 1.000E-01 0.500 F 0.333 0.555 21.3 V 0.70 0.80 c 691 1.65 Yes Yes
2004DL1 O C 2004-02-18.36995 1.000E-05 09:53:51.350 1.500E-01 0.500 F 0.460 -0.071 +01° 57' 22.40" 1.000E-01 0.500 F 0.333 -0.043 21.2 V 0.70 0.69 c 691 0.19 Yes Yes
2004DL1 O C 2004-02-18.39730 1.000E-05 09:53:45.710 1.500E-01 0.500 F 0.460 0.267 +01° 59' 57.60" 1.000E-01 0.500 F 0.333 -0.679 21.3 V 0.70 0.79 c 691 1.79 Yes Yes
Akka O C 2004-02-22.34934 1.000E-05 10:05:47.620 1.500E-01 0.500 F 0.371 -0.361 +08° 01' 26.60" 1.000E-01 0.500 F 0.285 -0.045 22.0 V 0.70 1.42 c 691 0.73 Yes Yes
Akka O C 2004-02-22.37719 1.000E-05 10:05:45.310 1.500E-01 0.500 F 0.371 -0.586 +08° 01' 39.20" 1.000E-01 0.500 F 0.285 0.223 22.1 V 0.70 1.52 c 691 1.26 Yes Yes
Akka O C 2004-02-22.40480 1.000E-05 10:05:43.070 1.500E-01 0.500 F 0.371 -0.132 +08° 01' 51.30" 1.000E-01 0.500 F 0.285 0.116 21.7 V 0.70 1.12 c 691 0.35 Yes Yes
2000EV70 O C t 2004-03-01.45104 1.000E-05 16:11:37.590 1.500E-01 0.500 F 0.329 1.388 -13° 30' 47.20" 1.000E-01 0.500 F 0.169 -1.375 c 691 3.77 No No
2000EV70 O C t 2004-03-01.45891 1.000E-05 16:11:33.230 1.500E-01 0.500 F 0.329 0.141 -13° 30' 32.50" 1.000E-01 0.500 F 0.169 -0.781 c 691 1.62 Yes No
2000EV70 O C t 2004-03-01.46681 1.000E-05 16:11:28.930 1.500E-01 0.500 F 0.329 0.059 -13° 30' 18.30" 1.000E-01 0.500 F 0.169 -0.767 c 691 1.56 Yes No
2001VS78 O C 2004-03-15.10788 1.000E-05 03:59:58.100 1.500E-01 0.500 F 0.058 0.147 +17° 22' 48.70" 1.000E-01 0.500 F 0.555 -0.164 19.6 V 0.70 0.10 c 691 0.44 Yes Yes
Apophis O C 2004-03-15.10789 1.000E-05 04:06:08.080 1.500E-01 0.612 F -0.247 0.251 +16° 55' 04.60" 1.000E-01 0.612 F 0.140 -0.070 o 691 0.43 Yes No
Apophis O C 2004-03-15.11039 1.000E-05 04:06:08.580 1.500E-01 0.612 F -0.247 -0.932 +16° 55' 06.10" 1.000E-01 0.612 F 0.140 -0.350 o 691 1.63 Yes No
2001VS78 O C 2004-03-15.12365 1.000E-05 03:59:59.790 1.500E-01 0.500 F -0.059 0.352 +17° 23' 04.40" 1.000E-01 0.500 F 0.438 0.217 19.7 V 0.70 0.20 c 691 0.83 Yes Yes
Apophis O C 2004-03-15.12365 1.000E-05 04:06:11.750 1.500E-01 0.612 F -0.247 0.205 +16° 55' 15.50" 1.000E-01 0.612 F 0.140 -0.380 o 691 0.71 Yes No
Apophis O C 2004-03-15.12628 1.000E-05 04:06:12.400 1.500E-01 0.612 F -0.247 0.731 +16° 55' 17.70" 1.000E-01 0.612 F 0.140 -0.049 o 691 1.20 Yes No
2001VS78 O C 2004-03-15.13723 1.000E-05 04:00:01.230 1.500E-01 0.500 F -0.059 0.182 +17° 23' 17.60" 1.000E-01 0.500 F 0.438 0.134 19.7 V 0.70 0.20 c 691 0.45 Yes Yes
Apophis O C 2004-03-15.13723 1.000E-05 04:06:14.900 1.500E-01 0.612 F -0.247 -0.055 +16° 55' 25.40" 1.000E-01 0.612 F 0.140 -0.122 o 691 0.22 Yes No
Apophis O C 2004-03-15.13998 1.000E-05 04:06:15.580 1.500E-01 0.612 F -0.247 0.492 +16° 55' 27.10" 1.000E-01 0.612 F 0.140 -0.373 o 691 1.01 Yes No
2004ET21 O C 2004-03-15.38336 1.000E-05 11:39:42.830 1.500E-01 0.500 F 0.464 -0.255 +08° 26' 10.40" 1.000E-01 0.500 F 0.424 0.197 22.4 V 0.70 1.10 c 691 0.67 Yes Yes
2004ET21 O C 2004-03-15.41090 1.000E-05 11:39:40.440 1.500E-01 0.500 F 0.464 -0.143 +08° 27' 32.90" 1.000E-01 0.500 F 0.424 -0.647 22.0 V 0.70 0.70 c 691 1.37 Yes Yes
2004ET21 O C 2004-03-15.45823 1.000E-05 11:39:36.360 1.500E-01 0.500 F 0.464 -0.014 +08° 29' 56.70" 1.000E-01 0.500 F 0.424 0.098 22.1 V 0.70 0.80 c 691 0.20 Yes Yes
2004EH1 O C 2004-03-16.13016 1.000E-05 09:53:59.060 1.500E-01 0.500 F 0.339 -0.373 +18° 20' 19.30" 1.000E-01 0.500 F 0.385 -0.181 19.8 V 0.70 0.43 c 691 0.84 Yes Yes
2004FD O C 2004-03-16.13016 1.000E-05 09:52:53.420 1.500E-01 0.500 F 0.293 0.146 +19° 02' 51.40" 1.000E-01 0.500 F 0.302 -0.153 21.0 V 0.70 0.31 c 691 0.46 Yes Yes
2004EH1 O C 2004-03-16.15702 1.000E-05 09:53:52.630 1.500E-01 0.500 F 0.339 0.015 +18° 19' 29.20" 1.000E-01 0.500 F 0.385 -0.311 19.6 V 0.70 0.23 c 691 0.63 Yes Yes
2004FD O C 2004-03-16.15702 1.000E-05 09:52:55.560 1.500E-01 0.500 F 0.293 0.035 +19° 01' 56.00" 1.000E-01 0.500 F 0.302 0.209 21.1 V 0.70 0.41 c 691 0.45 Yes Yes
2004EH1 O C 2004-03-16.18428 1.000E-05 09:53:46.040 1.500E-01 0.500 F 0.339 0.386 +18° 18' 38.00" 1.000E-01 0.500 F 0.385 -0.234 19.5 V 0.70 0.13 c 691 0.92 Yes Yes
2004FD O C 2004-03-16.18428 1.000E-05 09:52:57.680 1.500E-01 0.500 F 0.293 -0.104 +19° 00' 59.00" 1.000E-01 0.500 F 0.302 -0.045 20.8 V 0.70 0.10 c 691 0.24 Yes Yes
2004CH52 O C 2004-03-16.20565 1.000E-05 10:43:56.160 1.500E-01 0.500 F 0.180 0.007 -02° 37' 22.20" 1.000E-01 0.500 F 0.242 0.002 20.2 V 0.70 0.38 c 691 0.02 Yes Yes
2000RD34 O C 2004-03-16.20830 1.000E-05 10:47:15.310 1.500E-01 0.500 F 0.709 -0.341 -03° 54' 31.20" 1.000E-01 0.500 F -0.005 0.060 19.3 V 0.70 0.40 c 691 0.70 Yes Yes
2004FA O C 2004-03-16.22200 1.000E-05 10:54:16.680 1.500E-01 0.500 F 0.510 -0.309 -04° 41' 08.30" 1.000E-01 0.500 F 0.165 -0.281 18.6 V 0.70 0.04 c 691 0.86 Yes Yes
2004CH52 O C 2004-03-16.23972 1.000E-05 10:43:53.360 1.500E-01 0.500 F 0.180 0.032 -02° 37' 39.70" 1.000E-01 0.500 F 0.242 0.193 20.2 V 0.70 0.38 c 691 0.39 Yes Yes
2000RD34 O C 2004-03-16.24227 1.000E-05 10:47:13.010 1.500E-01 0.500 F 0.709 -0.409 -03° 54' 21.70" 1.000E-01 0.500 F -0.005 0.015 19.3 V 0.70 0.40 c 691 0.83 Yes Yes
2004FA O C 2004-03-16.24785 1.000E-05 10:54:19.060 1.500E-01 0.500 F 0.510 -0.300 -04° 39' 35.90" 1.000E-01 0.500 F 0.165 -0.533 18.7 V 0.70 0.14 c 691 1.25 Yes Yes
2004CH52 O C 2004-03-16.26738 1.000E-05 10:43:51.070 1.500E-01 0.500 F 0.180 -0.122 -02° 37' 54.20" 1.000E-01 0.500 F 0.242 0.018 20.1 V 0.70 0.28 c 691 0.25 Yes Yes
2000RD34 O C 2004-03-16.27001 1.000E-05 10:47:11.140 1.500E-01 0.500 F 0.709 -0.295 -03° 54' 14.00" 1.000E-01 0.500 F -0.005 -0.104 19.3 V 0.70 0.39 c 691 0.63 Yes Yes
2004FA O C 2004-03-16.27549 1.000E-05 10:54:21.590 1.500E-01 0.500 F 0.510 -0.198 -04° 37' 55.80" 1.000E-01 0.500 F 0.165 -0.254 18.6 V 0.70 0.05 c 691 0.66 Yes Yes
1993MF O C 2004-03-16.34246 1.000E-05 11:46:52.940 1.500E-01 0.500 F 0.508 -0.084 -10° 07' 16.70" 1.000E-01 0.500 F 0.301 -0.153 19.1 V 0.70 0.12 c 691 0.35 Yes Yes
1993MF O C 2004-03-16.37082 1.000E-05 11:46:51.130 1.500E-01 0.500 F 0.508 -0.219 -10° 07' 05.30" 1.000E-01 0.500 F 0.301 -0.086 19.1 V 0.70 0.12 c 691 0.47 Yes Yes
1993MF O C 2004-03-16.39937 1.000E-05 11:46:49.320 1.500E-01 0.500 F 0.508 -0.214 -10° 06' 53.70" 1.000E-01 0.500 F 0.301 0.076 19.5 V 0.70 0.52 c 691 0.46 Yes Yes
2000EV70 O C 2004-03-16.49234 1.000E-05 14:11:26.040 1.500E-01 0.500 F 0.528 -0.348 -05° 03' 48.40" 1.000E-01 0.500 F 0.335 0.081 19.1 V 0.70 0.55 c 691 0.72 Yes Yes
2000EV70 O C 2004-03-16.50615 1.000E-05 14:11:20.230 1.500E-01 0.500 F 0.528 -0.243 -05° 03' 21.80" 1.000E-01 0.500 F 0.335 -0.046 19.1 V 0.70 0.55 c 691 0.50 Yes Yes
2000EV70 O C 2004-03-16.51950 1.000E-05 14:11:14.610 1.500E-01 0.500 F 0.528 -0.370 -05° 02' 55.90" 1.000E-01 0.500 F 0.335 0.006 19.2 V 0.70 0.65 c 691 0.74 Yes Yes
Zephyr O C 2004-03-17.13873 1.000E-05 09:56:57.660 1.500E-01 0.500 F 0.385 -0.154 +10° 57' 01.30" 1.000E-01 0.500 F 0.230 -0.017 20.0 V 0.70 0.13 c 691 0.31 Yes Yes
Zephyr O C 2004-03-17.16665 1.000E-05 09:56:56.010 1.500E-01 0.500 F 0.385 -0.422 +10° 57' 12.80" 1.000E-01 0.500 F 0.230 0.019 20.2 V 0.70 0.33 c 691 0.85 Yes Yes
Zephyr O C 2004-03-17.19585 1.000E-05 09:56:54.290 1.500E-01 0.500 F 0.278 -0.469 +10° 57' 24.70" 1.000E-01 0.500 F 0.368 -0.181 20.1 V 0.70 0.23 c 691 1.01 Yes Yes
2004FJ11 O C 2004-03-17.20979 1.000E-05 11:59:53.930 1.500E-01 0.500 F 0.394 -0.277 +04° 16' 04.10" 1.000E-01 0.500 F 0.188 -0.047 19.7 V 0.70 0.07 c 691 0.57 Yes Yes
2004FJ11 O C 2004-03-17.23973 1.000E-05 11:59:52.160 1.500E-01 0.500 F 0.394 -0.225 +04° 16' 10.80" 1.000E-01 0.500 F 0.188 0.124 19.6 V 0.70 -0.03 c 691 0.52 Yes Yes
2004FJ11 O C 2004-03-17.26878 1.000E-05 11:59:50.410 1.500E-01 0.500 F 0.394 -0.270 +04° 16' 17.10" 1.000E-01 0.500 F 0.188 0.130 19.7 V 0.70 0.07 c 691 0.60 Yes Yes
2000EZ148 O C 2004-03-17.40043 1.000E-05 12:12:46.590 1.500E-01 0.500 F 0.602 -0.246 +00° 12' 37.90" 1.000E-01 0.500 F 0.470 -0.047 18.5 V 0.70 0.21 c 691 0.50 Yes Yes
2000EZ148 O C 2004-03-17.43092 1.000E-05 12:12:44.280 1.500E-01 0.500 F 0.602 -0.365 +00° 12' 46.20" 1.000E-01 0.500 F 0.470 0.026 18.5 V 0.70 0.21 c 691 0.73 Yes Yes
2000EZ148 O C 2004-03-17.46208 1.000E-05 12:12:41.940 1.500E-01 0.500 F 0.602 -0.264 +00° 12' 54.40" 1.000E-01 0.500 F 0.470 -0.185 18.6 V 0.70 0.31 c 691 0.65 Yes Yes
2004EH1 O C 2004-03-18.11347 1.000E-05 09:46:16.590 1.500E-01 0.500 F 0.343 -0.089 +17° 10' 08.80" 1.000E-01 0.500 F 0.406 -0.300 19.3 V 0.70 0.03 c 691 0.63 Yes Yes
2004FD O C 2004-03-18.11629 1.000E-05 09:55:45.220 1.500E-01 0.500 F 0.232 -0.097 +18° 00' 40.00" 1.000E-01 0.500 F 0.535 0.055 21.2 V 0.70 0.16 c 691 0.23 Yes Yes
Zephyr O C 2004-03-18.14373 1.000E-05 09:56:01.030 1.500E-01 0.500 F 0.278 -0.354 +11° 03' 47.90" 1.000E-01 0.500 F 0.368 -0.120 20.0 V 0.70 0.11 c 691 0.75 Yes Yes
2004EH1 O C 2004-03-18.14773 1.000E-05 09:46:07.470 1.500E-01 0.500 F 0.343 0.031 +17° 08' 50.50" 1.000E-01 0.500 F 0.406 -0.247 19.3 V 0.70 0.03 c 691 0.50 Yes Yes
2004FD O C 2004-03-18.15086 1.000E-05 09:55:47.470 1.500E-01 0.500 F 0.232 0.022 +17° 59' 43.70" 1.000E-01 0.500 F 0.535 -0.455 21.5 V 0.70 0.45 c 691 0.93 Yes Yes
Zephyr O C 2004-03-18.17433 1.000E-05 09:55:59.280 1.500E-01 0.500 F 0.278 -0.342 +11° 04' 00.30" 1.000E-01 0.500 F 0.368 -0.051 19.8 V 0.70 -0.09 c 691 0.69 Yes Yes
2004EH1 O C 2004-03-18.17772 1.000E-05 09:45:59.410 1.500E-01 0.500 F 0.343 0.309 +17° 07' 41.30" 1.000E-01 0.500 F 0.406 -0.076 19.0 V 0.70 -0.26 c 691 0.65 Yes Yes
2004FD O C 2004-03-18.18057 1.000E-05 09:55:49.320 1.500E-01 0.500 F 0.232 -0.275 +17° 58' 56.40" 1.000E-01 0.500 F 0.535 0.394 21.7 V 0.70 0.65 c 691 0.99 Yes Yes
Zephyr O C 2004-03-18.20418 1.000E-05 09:55:57.570 1.500E-01 0.500 F 0.278 -0.335 +11° 04' 12.30" 1.000E-01 0.500 F 0.368 -0.046 20.1 V 0.70 0.21 c 691 0.68 Yes Yes
Konnohmaru O C 2004-03-18.22775 1.000E-05 11:57:18.730 1.500E-01 0.500 F 0.476 -0.239 +07° 20' 59.20" 1.000E-01 0.500 F 0.418 -0.067 20.7 V 0.70 0.19 c 691 0.50 Yes Yes
Konnohmaru O C 2004-03-18.26200 1.000E-05 11:57:16.570 1.500E-01 0.500 F 0.476 0.122 +07° 21' 11.30" 1.000E-01 0.500 F 0.418 -0.031 20.6 V 0.70 0.09 c 691 0.25 Yes Yes
Konnohmaru O C 2004-03-18.32617 1.000E-05 11:57:12.460 1.500E-01 0.500 F 0.476 -0.012 +07° 21' 33.90" 1.000E-01 0.500 F 0.418 0.045 20.5 V 0.70 -0.01 c 691 0.09 Yes Yes
1994CN2 O C 2004-03-18.34998 1.000E-05 11:01:45.950 1.500E-01 0.500 F 0.114 0.022 +08° 51' 59.00" 1.000E-01 0.500 F 0.463 0.039 19.9 V 0.70 0.49 c 691 0.09 Yes Yes
2000NG11 O C 2004-03-18.35573 1.000E-05 11:05:31.150 1.500E-01 0.500 F 0.271 -0.194 +07° 12' 59.10" 1.000E-01 0.500 F 0.202 -0.229 20.7 V 0.70 0.50 c 691 0.60 Yes Yes
1996HW1 O C 2004-03-18.35873 1.000E-05 11:00:12.650 1.500E-01 0.500 F 0.438 -0.518 +04° 25' 25.80" 1.000E-01 0.500 F 0.234 0.057 19.6 V 0.70 0.13 c 691 1.04 Yes Yes
1994CN2 O C 2004-03-18.38055 1.000E-05 11:01:43.340 1.500E-01 0.500 F 0.114 -0.101 +08° 52' 14.10" 1.000E-01 0.500 F 0.463 -0.152 19.8 V 0.70 0.39 c 691 0.37 Yes Yes
2000NG11 O C 2004-03-18.38656 1.000E-05 11:05:28.980 1.500E-01 0.500 F 0.271 -0.236 +07° 13' 11.70" 1.000E-01 0.500 F 0.202 -0.089 20.1 V 0.70 -0.10 c 691 0.50 Yes Yes
1996HW1 O C 2004-03-18.38954 1.000E-05 11:00:10.850 1.500E-01 0.500 F 0.438 -0.182 +04° 25' 40.90" 1.000E-01 0.500 F 0.234 -0.038 19.6 V 0.70 0.13 c 691 0.37 Yes Yes
1994CN2 O C 2004-03-18.41105 1.000E-05 11:01:40.750 1.500E-01 0.500 F 0.114 -0.164 +08° 52' 29.30" 1.000E-01 0.500 F 0.463 -0.171 19.8 V 0.70 0.39 c 691 0.47 Yes Yes
2000NG11 O C 2004-03-18.41701 1.000E-05 11:05:26.850 1.500E-01 0.500 F 0.271 -0.211 +07° 13' 23.90" 1.000E-01 0.500 F 0.202 -0.169 20.1 V 0.70 -0.10 c 691 0.54 Yes Yes
1996HW1 O C 2004-03-18.41994 1.000E-05 11:00:09.040 1.500E-01 0.500 F 0.438 -0.456 +04° 25' 56.00" 1.000E-01 0.500 F 0.234 0.081 19.3 V 0.70 -0.18 c 691 0.93 Yes Yes
2004EH1 O C 2004-03-20.11817 1.000E-05 09:37:34.630 1.500E-01 0.500 F 0.275 -0.243 +15° 43' 22.20" 1.000E-01 0.500 F 0.346 -0.193 19.2 V 0.70 0.04 c 691 0.63 Yes Yes
2004EH1 O C 2004-03-20.16789 1.000E-05 09:37:19.690 1.500E-01 0.500 F 0.275 -0.877 +15° 41' 01.90" 1.000E-01 0.500 F 0.346 0.263 18.4 V 0.70 -0.76 c 691 1.87 Yes Yes
2004EH1 O C 2004-03-20.19659 1.000E-05 09:37:11.040 1.500E-01 0.500 F 0.275 -0.389 +15° 39' 38.80" 1.000E-01 0.500 F 0.346 -0.563 18.9 V 0.70 -0.25 c 691 1.39 Yes Yes
1998JH2 O C 2004-03-20.23403 1.000E-05 12:13:27.870 1.500E-01 0.500 F 0.443 -0.148 +07° 05' 15.50" 1.000E-01 0.500 F 0.291 0.007 20.6 V 0.70 0.30 c 691 0.30 Yes Yes
1998JH2 O C 2004-03-20.26356 1.000E-05 12:13:25.930 1.500E-01 0.500 F 0.443 -0.169 +07° 05' 26.40" 1.000E-01 0.500 F 0.291 -0.072 20.4 V 0.70 0.10 c 691 0.37 Yes Yes
1998JH2 O C 2004-03-20.29269 1.000E-05 12:13:24.030 1.500E-01 0.500 F 0.443 0.068 +07° 05' 37.10" 1.000E-01 0.500 F 0.291 -0.184 20.3 V 0.70 0.00 c 691 0.39 Yes Yes
2004BD68 O C 2004-03-21.14097 1.000E-05 09:41:03.070 1.500E-01 0.500 F 0.391 -0.006 +07° 13' 08.20" 1.000E-01 0.500 F 0.360 -0.410 21.0 V 0.70 -0.06 c 691 0.82 Yes Yes
2004BD68 O C 2004-03-21.17096 1.000E-05 09:41:01.600 1.500E-01 0.500 F 0.391 -0.207 +07° 13' 38.60" 1.000E-01 0.500 F 0.360 -0.200 21.2 V 0.70 0.14 c 691 0.58 Yes Yes
2004BD68 O C 2004-03-21.20773 1.000E-05 09:40:59.830 1.500E-01 0.500 F 0.391 0.056 +07° 14' 15.20" 1.000E-01 0.500 F 0.360 -0.524 20.8 V 0.70 -0.26 c 691 1.06 Yes Yes
Melissabrucker O C 2004-03-23.20292 1.000E-05 11:35:06.350 1.500E-01 0.500 F 0.424 -0.284 +03° 07' 24.00" 1.000E-01 0.500 F 0.399 0.052 17.5 V 0.70 -0.02 c 691 0.58 Yes Yes
Melissabrucker O C 2004-03-23.23644 1.000E-05 11:35:04.210 1.500E-01 0.500 F 0.424 -0.107 +03° 07' 40.40" 1.000E-01 0.500 F 0.399 0.076 17.4 V 0.70 -0.12 c 691 0.26 Yes Yes
Melissabrucker O C 2004-03-23.26707 1.000E-05 11:35:02.240 1.500E-01 0.500 F 0.424 -0.112 +03° 07' 55.30" 1.000E-01 0.500 F 0.399 0.029 17.4 V 0.70 -0.12 c 691 0.23 Yes Yes
2004RW10 O C H 2004-03-23.31308 1.000E-05 11:40:17.710 1.500E-01 0.500 F 0.608 -0.321 -01° 48' 58.30" 1.000E-01 0.500 F 0.287 -0.383 c 691 1.02 Yes No
2004RW10 O C H 2004-03-23.34180 1.000E-05 11:40:15.000 1.500E-01 0.500 F 0.608 0.085 -01° 48' 37.80" 1.000E-01 0.500 F 0.287 -0.385 c 691 0.82 Yes No
2004RW10 O C H 2004-03-23.37058 1.000E-05 11:40:12.230 1.500E-01 0.500 F 0.522 -0.330 -01° 48' 17.00" 1.000E-01 0.500 F 0.311 -0.180 c 691 0.79 Yes No
2003QZ30 O C 2004-03-26.14644 1.000E-05 10:03:51.490 1.500E-01 0.500 F 0.427 0.016 +08° 49' 39.80" 1.000E-01 0.500 F 0.056 0.020 19.3 V 0.70 -0.22 c 691 0.05 Yes Yes
2003QZ30 O C 2004-03-26.17954 1.000E-05 10:03:51.480 1.500E-01 0.500 F 0.427 -0.193 +08° 49' 56.70" 1.000E-01 0.500 F 0.056 -0.238 19.5 V 0.70 -0.02 c 691 0.61 Yes Yes
2003QZ30 O C 2004-03-26.20908 1.000E-05 10:03:51.480 1.500E-01 0.500 F 0.427 -0.201 +08° 50' 12.10" 1.000E-01 0.500 F 0.056 -0.082 19.5 V 0.70 -0.02 c 691 0.44 Yes Yes
Konnohmaru O C 2004-03-26.23218 1.000E-05 11:49:15.220 1.500E-01 0.500 F 0.269 0.872 +08° 04' 02.40" 1.000E-01 0.500 F 0.382 0.312 22.0 V 0.70 1.26 c 691 1.86 Yes Yes
Konnohmaru O C 2004-03-26.25945 1.000E-05 11:49:13.550 1.500E-01 0.500 F 0.269 0.146 +08° 04' 10.00" 1.000E-01 0.500 F 0.382 -0.058 21.2 V 0.70 0.46 c 691 0.32 Yes Yes
Konnohmaru O C 2004-03-26.28632 1.000E-05 11:49:11.930 1.500E-01 0.500 F 0.269 -0.176 +08° 04' 18.00" 1.000E-01 0.500 F 0.382 0.110 21.0 V 0.70 0.26 c 691 0.42 Yes Yes
Zephyr O C 2004-03-27.13755 1.000E-05 09:48:37.730 1.500E-01 0.500 F 0.517 -0.030 +11° 58' 21.40" 1.000E-01 0.500 F 0.344 -0.193 20.7 V 0.70 0.64 c 691 0.39 Yes Yes
Zephyr O C 2004-03-27.16478 1.000E-05 09:48:36.530 1.500E-01 0.500 F 0.517 -0.050 +11° 58' 30.30" 1.000E-01 0.500 F 0.344 -0.178 20.5 V 0.70 0.44 c 691 0.37 Yes Yes
Zephyr O C 2004-03-27.20022 1.000E-05 09:48:34.960 1.500E-01 0.500 F 0.517 -0.181 +11° 58' 41.70" 1.000E-01 0.500 F 0.344 -0.296 20.3 V 0.70 0.24 c 691 0.69 Yes Yes
2008EN82 O C 2004-03-27.23863 1.000E-05 10:47:35.580 1.500E-01 0.500 F 0.583 -0.287 -03° 35' 56.20" 1.000E-01 0.500 F 0.045 -0.080 20.4 V 0.70 0.67 c 691 0.60 Yes Yes
2008EN82 O C 2004-03-27.26608 1.000E-05 10:47:34.350 1.500E-01 0.500 F 0.583 -0.346 -03° 35' 39.50" 1.000E-01 0.500 F 0.045 0.096 20.0 V 0.70 0.27 c 691 0.73 Yes Yes
2008EN82 O C 2004-03-27.30870 1.000E-05 10:47:32.450 1.500E-01 0.500 F 0.583 -0.363 -03° 35' 14.00" 1.000E-01 0.500 F 0.045 -0.066 20.4 V 0.70 0.67 c 691 0.75 Yes Yes
2004FC18 O C t 2004-03-27.33941 1.000E-05 11:41:30.110 1.500E-01 0.500 F 0.439 1.544 +11° 11' 14.30" 1.000E-01 0.500 F 0.324 -4.251 c 691 7.41 No No
2004FC18 O C t 2004-03-27.36674 1.000E-05 11:41:23.090 1.500E-01 0.500 F 0.439 0.298 +11° 16' 39.30" 1.000E-01 0.500 F 0.324 0.264 c 691 0.99 Yes No
2000NG11 O C 2004-03-28.11649 1.000E-05 10:55:22.410 1.500E-01 0.500 F 0.387 0.028 +08° 11' 51.90" 1.000E-01 0.500 F 0.456 0.023 21.1 V 0.70 0.57 c 691 0.07 Yes Yes
2000NG11 O C 2004-03-28.14532 1.000E-05 10:55:20.780 1.500E-01 0.500 F 0.387 0.230 +08° 12' 01.00" 1.000E-01 0.500 F 0.456 0.028 20.7 V 0.70 0.17 c 691 0.46 Yes Yes
2000NG11 O C 2004-03-28.17523 1.000E-05 10:55:19.060 1.500E-01 0.500 F 0.387 0.094 +08° 12' 10.40" 1.000E-01 0.500 F 0.456 0.022 20.4 V 0.70 -0.13 c 691 0.19 Yes Yes
2004FC18 O C t 2004-03-28.20228 1.000E-05 11:38:04.120 1.500E-01 0.500 F 0.440 0.456 +14° 16' 17.40" 1.000E-01 0.500 F 0.311 -0.319 c 691 1.27 Yes No
2004FC18 O C t 2004-03-28.21204 1.000E-05 11:38:01.070 1.500E-01 0.500 F 0.440 -0.509 +14° 18' 36.10" 1.000E-01 0.500 F 0.311 0.178 c 691 1.21 Yes No
2004FC18 O C t 2004-03-28.22966 1.000E-05 11:37:55.800 1.500E-01 0.500 F 0.440 1.791 +14° 22' 44.20" 1.000E-01 0.500 F 0.311 -1.776 c 691 4.62 No No
2000EV70 O C 2004-03-28.37023 1.000E-05 13:05:30.460 1.500E-01 0.500 F 0.513 -0.638 +00° 06' 10.60" 1.000E-01 0.500 F 0.318 -0.043 18.9 V 0.70 0.36 c 691 1.28 Yes Yes
2000EV70 O C 2004-03-28.41705 1.000E-05 13:05:17.910 1.500E-01 0.500 F 0.513 0.430 +00° 07' 05.20" 1.000E-01 0.500 F 0.318 -0.190 18.8 V 0.70 0.26 c 691 0.94 Yes Yes
2000EV70 O C 2004-03-28.47032 1.000E-05 13:05:03.630 1.500E-01 0.500 F 0.513 -0.310 +00° 08' 07.50" 1.000E-01 0.500 F 0.318 0.005 19.2 V 0.70 0.66 c 691 0.62 Yes Yes
2000EZ148 O C 2004-03-29.20917 1.000E-05 11:57:24.120 1.500E-01 0.500 F 0.510 -0.232 +01° 07' 54.00" 1.000E-01 0.500 F 0.396 -0.221 18.3 V 0.70 0.08 c 691 0.64 Yes Yes
2000EZ148 O C 2004-03-29.23879 1.000E-05 11:57:21.670 1.500E-01 0.500 F 0.510 -0.297 +01° 08' 02.60" 1.000E-01 0.500 F 0.396 0.021 18.3 V 0.70 0.08 c 691 0.60 Yes Yes
2000EZ148 O C 2004-03-29.26680 1.000E-05 11:57:19.360 1.500E-01 0.500 F 0.510 -0.204 +01° 08' 10.30" 1.000E-01 0.500 F 0.396 -0.178 18.2 V 0.70 -0.02 c 691 0.54 Yes Yes
2004FE31 O C 2004-03-29.32407 1.000E-05 12:39:01.530 1.500E-01 0.500 F 0.484 0.085 -08° 50' 15.00" 1.000E-01 0.500 F 0.118 -0.059 20.7 V 0.70 0.40 c 691 0.21 Yes Yes
2004FE31 O C 2004-03-29.35187 1.000E-05 12:38:59.110 1.500E-01 0.500 F 0.484 -0.233 -08° 49' 51.00" 1.000E-01 0.500 F 0.118 -0.288 20.3 V 0.70 0.00 c 691 0.74 Yes Yes
2004FE31 O C 2004-03-29.38105 1.000E-05 12:38:56.610 1.500E-01 0.500 F 0.484 -0.011 -08° 49' 25.20" 1.000E-01 0.500 F 0.118 0.040 20.5 V 0.70 0.20 c 691 0.08 Yes Yes
2004FZ5 O C 2004-03-30.21076 1.000E-05 11:14:01.270 1.500E-01 0.500 F 0.563 -0.351 +07° 53' 52.80" 1.000E-01 0.500 F 0.387 -0.293 20.3 V 0.70 1.03 c 691 0.94 Yes Yes
2004FZ5 O C 2004-03-30.24429 1.000E-05 11:14:01.540 1.500E-01 0.500 F 0.563 -0.007 +07° 55' 49.40" 1.000E-01 0.500 F 0.387 -0.363 20.3 V 0.70 1.02 c 691 0.75 Yes Yes
2004FZ5 O C 2004-03-30.27336 1.000E-05 11:14:01.740 1.500E-01 0.500 F 0.563 -0.193 +07° 57' 30.80" 1.000E-01 0.500 F 0.387 -0.022 20.3 V 0.70 1.02 c 691 0.40 Yes Yes
2004DV24 O C 2004-03-31.14084 1.000E-05 10:05:11.990 1.500E-01 0.500 F 0.404 0.110 +10° 19' 05.50" 1.000E-01 0.500 F 0.168 0.196 18.8 V 0.70 -0.02 c 691 0.45 Yes Yes
2004DV24 O C 2004-03-31.16930 1.000E-05 10:05:10.360 1.500E-01 0.500 F 0.404 0.009 +10° 20' 13.60" 1.000E-01 0.500 F 0.168 -0.020 19.0 V 0.70 0.18 c 691 0.04 Yes Yes
2004DV24 O C 2004-03-31.19685 1.000E-05 10:05:08.780 1.500E-01 0.500 F 0.404 -0.101 +10° 21' 19.60" 1.000E-01 0.500 F 0.168 -0.063 19.1 V 0.70 0.28 c 691 0.24 Yes Yes
2004FJ11 O C 2004-03-31.32587 1.000E-05 11:43:24.680 1.500E-01 0.500 F 0.411 -0.332 +05° 05' 08.00" 1.000E-01 0.500 F 0.337 0.028 19.2 V 0.70 -0.04 c 691 0.67 Yes Yes
2004FJ11 O C 2004-03-31.35296 1.000E-05 11:43:22.060 1.500E-01 0.500 F 0.411 -0.097 +05° 05' 12.30" 1.000E-01 0.500 F 0.337 -0.026 19.2 V 0.70 -0.04 c 691 0.20 Yes Yes
2004FJ11 O C 2004-03-31.38052 1.000E-05 11:43:19.400 1.500E-01 0.500 F 0.411 -0.153 +05° 05' 16.60" 1.000E-01 0.500 F 0.337 -0.080 19.3 V 0.70 0.06 c 691 0.35 Yes Yes
1997EH29 O C 2004-03-31.41628 1.000E-05 14:20:49.290 1.500E-01 0.500 F 0.161 -0.028 -01° 42' 44.70" 1.000E-01 0.500 F 0.369 -0.635 22.1 V 0.70 0.88 c 691 1.28 Yes Yes
2004FN32 O C 2004-03-31.42173 1.000E-05 14:18:16.040 1.500E-01 0.500 F 0.365 -0.080 -03° 38' 10.10" 1.000E-01 0.500 F 0.319 -0.209 20.2 V 0.70 0.27 c 691 0.45 Yes Yes
1997EH29 O C 2004-03-31.44330 1.000E-05 14:20:46.600 1.500E-01 0.500 F 0.161 -0.698 -01° 42' 14.90" 1.000E-01 0.500 F 0.369 -0.230 22.1 V 0.70 0.89 c 691 1.48 Yes Yes
2004FN32 O C 2004-03-31.44849 1.000E-05 14:18:13.410 1.500E-01 0.500 F 0.365 -0.154 -03° 37' 13.20" 1.000E-01 0.500 F 0.319 0.061 20.1 V 0.70 0.17 c 691 0.33 Yes Yes
1997EH29 O C 2004-03-31.46985 1.000E-05 14:20:44.040 1.500E-01 0.500 F 0.161 -0.155 -01° 41' 45.90" 1.000E-01 0.500 F 0.369 -0.129 21.4 V 0.70 0.19 c 691 0.41 Yes Yes
2004FN32 O C 2004-03-31.47517 1.000E-05 14:18:10.800 1.500E-01 0.500 F 0.365 -0.127 -03° 36' 16.90" 1.000E-01 0.500 F 0.319 -0.172 20.0 V 0.70 0.07 c 691 0.43 Yes Yes
2004RW10 O C H 2004-04-12.14663 1.000E-05 11:09:07.830 1.500E-01 0.500 F 0.344 0.000 +02° 40' 20.70" 1.000E-01 0.500 F 0.292 -1.186 c 691 2.48 Yes No
2004RW10 O C H 2004-04-12.17536 1.000E-05 11:09:05.130 1.500E-01 0.500 F 0.344 -0.267 +02° 40' 45.50" 1.000E-01 0.500 F 0.292 -0.732 c 691 1.62 Yes No
2004RW10 O C H 2004-04-12.20285 1.000E-05 11:09:02.540 1.500E-01 0.500 F 0.344 -0.531 +02° 41' 08.80" 1.000E-01 0.500 F 0.292 -0.706 c 691 1.84 Yes No
2002JV15 O C 2004-04-12.32519 1.000E-05 13:43:44.660 1.500E-01 0.500 F 0.454 -0.230 -09° 27' 25.40" 1.000E-01 0.500 F 0.212 -0.499 19.6 V 0.70 -0.02 c 691 1.11 Yes Yes
2004FU64 O C 2004-04-12.33937 1.000E-05 13:32:50.010 1.500E-01 0.500 F 0.365 -0.012 -13° 34' 34.60" 1.000E-01 0.500 F 0.330 0.200 18.5 V 0.70 -0.16 c 691 0.41 Yes Yes
2002JV15 O C 2004-04-12.35359 1.000E-05 13:43:41.670 1.500E-01 0.500 F 0.454 -0.039 -09° 26' 54.10" 1.000E-01 0.500 F 0.212 -0.339 19.7 V 0.70 0.09 c 691 0.69 Yes Yes
2004FU64 O C 2004-04-12.36792 1.000E-05 13:32:45.910 1.500E-01 0.500 F 0.365 -0.074 -13° 34' 59.70" 1.000E-01 0.500 F 0.330 -0.003 18.6 V 0.70 -0.06 c 691 0.15 Yes Yes
2002JV15 O C 2004-04-12.38227 1.000E-05 13:43:38.640 1.500E-01 0.500 F 0.454 -0.035 -09° 26' 22.60" 1.000E-01 0.500 F 0.212 -0.372 19.8 V 0.70 0.19 c 691 0.76 Yes Yes
2004FU64 O C 2004-04-12.39656 1.000E-05 13:32:41.810 1.500E-01 0.500 F 0.365 -0.021 -13° 35' 24.70" 1.000E-01 0.500 F 0.330 -0.100 18.6 V 0.70 -0.06 c 691 0.21 Yes Yes
2001FD90 O C 2004-04-12.40672 1.000E-05 15:34:11.290 1.500E-01 0.500 F 0.389 0.418 -14° 53' 18.40" 1.000E-01 0.500 F 0.157 0.170 17.1 V 0.70 0.14 c 691 0.92 Yes Yes
2001FD90 O C 2004-04-12.43725 1.000E-05 15:34:20.900 1.500E-01 0.500 F 0.389 0.169 -14° 52' 25.00" 1.000E-01 0.500 F 0.157 -0.069 17.1 V 0.70 0.14 c 691 0.37 Yes Yes
2001FD90 O C 2004-04-12.46604 1.000E-05 15:34:30.010 1.500E-01 0.500 F 0.389 0.214 -14° 51' 34.00" 1.000E-01 0.500 F 0.157 -0.084 17.0 V 0.70 0.04 c 691 0.47 Yes Yes
Melissabrucker O C 2004-04-13.12786 1.000E-05 11:17:54.390 1.500E-01 0.500 F 0.563 -0.198 +05° 23' 02.80" 1.000E-01 0.500 F 0.465 -0.162 18.2 V 0.70 -0.05 c 691 0.51 Yes Yes
2004FJ11 O C 2004-04-13.12786 1.000E-05 11:22:21.240 1.500E-01 0.500 F 0.563 -0.357 +05° 16' 15.40" 1.000E-01 0.500 F 0.465 0.026 18.8 V 0.70 -0.10 c 691 0.73 Yes Yes
Melissabrucker O C 2004-04-13.15690 1.000E-05 11:17:53.360 1.500E-01 0.500 F 0.563 -0.204 +05° 23' 10.90" 1.000E-01 0.500 F 0.465 -0.074 18.2 V 0.70 -0.05 c 691 0.43 Yes Yes
2004FJ11 O C 2004-04-13.15690 1.000E-05 11:22:17.610 1.500E-01 0.500 F 0.563 -0.336 +05° 16' 12.50" 1.000E-01 0.500 F 0.465 -0.050 18.7 V 0.70 -0.20 c 691 0.69 Yes Yes
Melissabrucker O C 2004-04-13.18489 1.000E-05 11:17:52.360 1.500E-01 0.500 F 0.563 -0.284 +05° 23' 18.60" 1.000E-01 0.500 F 0.465 -0.076 18.2 V 0.70 -0.05 c 691 0.59 Yes Yes
2004FJ11 O C 2004-04-13.18489 1.000E-05 11:22:14.070 1.500E-01 0.500 F 0.563 -0.399 +05° 16' 09.60" 1.000E-01 0.500 F 0.465 -0.100 18.8 V 0.70 -0.10 c 691 0.83 Yes Yes
2004FE31 O C 2004-04-14.17320 1.000E-05 12:17:09.370 1.500E-01 0.500 F 0.461 -0.287 -04° 48' 54.10" 1.000E-01 0.500 F 0.289 -0.399 20.9 V 0.70 0.35 c 691 0.98 Yes Yes
2004FE31 O C 2004-04-14.20279 1.000E-05 12:17:06.990 1.500E-01 0.500 F 0.461 -0.429 -04° 48' 27.00" 1.000E-01 0.500 F 0.289 -0.337 21.1 V 0.70 0.55 c 691 1.09 Yes Yes

[1-200] [201-400] [401-600] [601-800] [801-1000] [1001-1200] [1201-1400] [1401-1600] [1601-1800] [1801-2000] [2001-2200] [2201-2400] [2401-2600] [2601-2800] [2801-3000] [3001-3200] [3201-3400] [3401-3600] [3601-3800] [3801-4000] [4001-4200] [4201-4400] [4401-4600] [4601-4800] [4801-5000] [5001-5200] [5201-5400] [5401-5600] [5601-5800] [5801-6000] [6001-6200] [6201-6400] [6401-6600] [6601-6800] [6801-7000] [7001-7200] [7201-7400] [7401-7600] [7601-7800] [7801-8000] [8001-8200] [8201-8400] [8401-8600] [8601-8800] [8801-9000] [9001-9200] [9201-9400] [9401-9600] [9601-9800] [9801-10000] [10001-10200] [10201-10400] [10401-10600] [10601-10800] [10801-11000] [11001-11200] [11201-11400] [11401-11600] [11601-11800] [11801-12000] [12001-12200] [12201-12400] [12401-12600] [12601-12800] [12801-13000] [13001-13200] [13201-13400] [13401-13600] [13601-13800] [13801-14000] [14001-14200] [14201-14400] [14401-14600] [14601-14800] [14801-15000] [15001-15200] [15201-15400] [15401-15600] [15601-15800] [15801-16000] [16001-16200] [16201-16400] [16401-16600] [16601-16800] [16801-17000] [17001-17200] [17201-17400] [17401-17600] [17601-17800] [17801-18000] [18001-18200] [18201-18400] [18401-18600] [18601-18800] [18801-19000] [19001-19200] [19201-19400] [19401-19600] [19601-19800] [19801-20000] [20001-20200] [20201-20400] [20401-20600] [20601-20800] [20801-21000] [21001-21200] [21201-21400] [21401-21600] [21601-21800] [21801-22000] [22001-22200] [22201-22400] [22401-22600] [22601-22800] [22801-23000] [23001-23200] [23201-23400] [23401-23600] [23601-23800] [23801-24000] [24001-24200] [24201-24400] [24401-24600] [24601-24800] [24801-25000] [25001-25200] [25201-25400] [25401-25600] [25601-25800] [25801-26000] [26001-26200] [26201-26400] [26401-26600] [26601-26800] [26801-27000] [27001-27200] [27201-27400] [27401-27600] [27601-27800] [27801-28000] [28001-28200] [28201-28400] [28401-28600] [28601-28800] [28801-29000] [29001-29200] [29201-29400] [29401-29600] [29601-29800] [29801-30000] [30001-30200] [30201-30400] [30401-30600] [30601-30800] [30801-31000] [31001-31200] [31201-31400] [31401-31600] [31601-31800] [31801-32000] [32001-32200] [32201-32400] [32401-32600] [32601-32800] [32801-33000] [33001-33200] [33201-33400] [33401-33600] [33601-33800] [33801-34000] [34001-34200] [34201-34400] [34401-34600] [34601-34800] [34801-35000] [35001-35200] [35201-35400] [35401-35600] [35601-35800] [35801-36000] [36001-36200] [36201-36400] [36401-36600] [36601-36800] [36801-37000] [37001-37200] [37201-37400] [37401-37600] [37601-37800] [37801-38000] [38001-38200] [38201-38400] [38401-38600] [38601-38800] [38801-39000] [39001-39200] [39201-39400] [39401-39600] [39601-39800] [39801-40000] [40001-40200] [40201-40400] [40401-40600] [40601-40800] [40801-41000] [41001-41200] [41201-41400] [41401-41600] [41601-41800] [41801-42000] [42001-42200] [42201-42400] [42401-42600] [42601-42800] [42801-43000] [43001-43200] [43201-43400] [43401-43600] [43601-43800] [43801-44000] [44001-44200] [44201-44400] [44401-44600] [44601-44800] [44801-45000] [45001-45200] [45201-45400] [45401-45600] [45601-45800] [45801-46000] [46001-46200] [46201-46400] [46401-46600] [46601-46800] [46801-47000] [47001-47200] [47201-47400] [47401-47600] [47601-47800] [47801-48000] [48001-48200] [48201-48400] [48401-48600] [48601-48800] [48801-49000] [49001-49200] [49201-49400] [49401-49600] [49601-49800] [49801-50000] [50001-50200] [50201-50388]